{"data":{"norad_id":45131,"epoch":"2026-09-20T03:33:52.402752Z","epoch_age_seconds":44728,"freshness":"FRESH","line1":"1 45131U 20008A   26263.14852318 -.00000224  00000+0 -68586-3 0  9990","line2":"2 45131  87.8555  33.6561 0002705 103.1285 257.0143 13.09457717318493","mean_motion":13.09457717,"eccentricity":0.0002705,"inclination_deg":87.8555,"raan_deg":33.6561,"arg_perigee_deg":103.1285,"mean_anomaly_deg":257.0143,"bstar":-0.00068586,"rev_number":31849,"period_min":109.96918658046,"perigee_km":1223.2007361537,"apogee_km":1227.3141725535,"semimajor_km":7603.3944543536,"source":"CELESTRAK","updated_at":"2026-09-20T09:00:44.544607Z"}}